KK4KTV-13 Weather Reports


Display with metric or nautical units.
time (UTC)temp
F
wind
direction
speed
MPH
gust
MPH
rain 1hr
in
rain 24hr
in
rain mn
in
humidity
%
barometer
mb
20260906012821 73 343 0.0 0.0 0.00 0.00 0.00 95 1011.6
20260906012320 73 343 0.0 0.0 0.00 0.00 0.00 94 1011.5
20260906011815 73 343 0.0 0.0 0.00 0.00 0.00 93 1011.6
20260906011310 73 343 0.0 0.0 0.00 0.00 0.00 93 1011.6
20260906010806 73 343 0.0 0.0 0.00 0.00 0.00 93 1011.5
20260906010302 73 343 0.0 0.0 0.00 0.00 0.00 92 1011.5
20260906005757 74 343 0.0 0.0 0.00 0.00 0.00 92 1011.5
20260906005256 74 343 0.0 0.0 0.00 0.00 0.00 91 1011.4
20260906004755 74 343 0.0 0.0 0.00 0.00 0.00 91 1011.2
20260906004250 74 343 0.0 0.0 0.00 0.00 0.00 90 1011.3
20260906003749 74 343 0.0 0.0 0.00 0.00 0.00 89 1011.3
20260906003245 75 343 0.0 0.0 0.00 0.00 0.00 88 1011.4
20260906002740 75 343 0.0 0.0 0.00 0.00 0.00 88 1011.3
20260906002234 75 343 0.0 0.0 0.00 0.00 0.00 88 1011.5
20260906001730 76 344 0.0 0.0 0.00 0.00 0.00 86 1011.5
20260906001225 76 344 0.0 0.0 0.00 0.00 0.00 87 1011.6
20260906000720 77 344 0.0 0.0 0.00 0.00 0.00 85 1011.6
20260906000215 77 344 0.0 0.0 0.00 0.00 0.00 86 1011.8
20260905235715 78 344 0.0 0.0 0.00 0.00 0.00 81 1011.7
20260905235209 78 344 0.0 0.0 0.00 0.00 0.00 83 1011.7
20260905234705 79 344 0.0 0.0 0.00 0.00 0.00 79 1011.7
20260905234200 79 344 0.0 0.0 0.00 0.00 0.00 79 1011.8
20260905233656 80 344 0.0 0.0 0.00 0.00 0.00 78 1011.8
20260905233155 81 344 0.0 0.0 0.00 0.00 0.00 76 1011.9
20260905232650 80 344 0.0 0.0 0.00 0.00 0.00 74 1011.9
20260905232145 79 345 0.0 0.0 0.00 0.00 0.00 78 1012.1
20260905231640 79 270 0.0 0.0 0.00 0.00 0.00 78 1012.0
20260905231137 80 251 1.0 2.0 0.00 0.00 0.00 78 1012.1
20260905230627 80 265 1.0 2.0 0.00 0.00 0.00 78 1012.2
20260905230124 80 218 2.0 2.0 0.00 0.00 0.00 77 1012.3
20260905225618 81 240 1.0 4.0 0.00 0.00 0.00 76 1012.0
20260905225113 83 177 2.0 4.0 0.00 0.00 0.00 71 1012.0
20260905224608 81 246 1.0 2.0 0.00 0.00 0.00 73 1011.9
20260905224107 82 275 0.0 0.0 0.00 0.00 0.00 77 1011.9
20260905223605 82 274 0.0 0.0 0.00 0.00 0.00 75 1011.8
20260905223101 82 263 0.0 3.0 0.00 0.00 0.00 74 1011.8
20260905222601 82 208 3.0 3.0 0.00 0.00 0.00 73 1011.8
20260905222056 82 241 1.0 1.0 0.00 0.00 0.00 74 1011.8
20260905221552 82 271 0.0 1.0 0.00 0.00 0.00 74 1011.9
20260905221048 84 277 2.0 2.0 0.00 0.00 0.00 70 1011.8
20260905220543 83 284 0.0 0.0 0.00 0.00 0.00 72 1011.5
20260905220039 81 255 1.0 2.0 0.00 0.00 0.00 74 1011.5
20260905215539 82 260 3.0 6.0 0.00 0.00 0.00 73 1011.6
20260905215035 83 269 0.0 1.0 0.00 0.00 0.00 71 1011.5
20260905214531 84 258 0.0 1.0 0.00 0.00 0.00 69 1011.4
20260905214026 84 185 3.0 4.0 0.00 0.00 0.00 66 1011.3
20260905213521 86 191 6.0 9.0 0.00 0.00 0.00 66 1011.5
20260905213017 87 226 1.0 1.0 0.00 0.00 0.00 69 1011.4
20260905212511 88 319 0.0 0.0 0.00 0.00 0.00 67 1011.4
20260905212010 88 319 0.0 0.0 0.00 0.00 0.00 65 1011.2
20260905211506 88 298 0.0 1.0 0.00 0.00 0.00 63 1011.3
20260905211002 89 279 0.0 1.0 0.00 0.00 0.00 61 1011.3
20260905210457 91 226 0.0 1.0 0.00 0.00 0.00 56 1011.4
20260905205956 92 261 0.0 2.0 0.00 0.00 0.00 53 1011.5
20260905205451 92 305 1.0 2.0 0.00 0.00 0.00 56 1011.4
20260905204950 94 279 1.0 2.0 0.00 0.00 0.00 53 1011.3
20260905204446 94 245 1.0 1.0 0.00 0.00 0.00 52 1011.4
20260905203945 94 278 2.0 4.0 0.00 0.00 0.00 51 1011.3
20260905203441 95 249 2.0 6.0 0.00 0.00 0.00 54 1011.5
20260905202936 95 325 4.0 4.0 0.00 0.00 0.00 53 1011.3
20260905202431 95 241 2.0 4.0 0.00 0.00 0.00 51 1011.7
20260905201927 95 220 1.0 3.0 0.00 0.00 0.00 53 1011.9
20260905201422 95 174 3.0 3.0 0.00 0.00 0.00 48 1011.9
20260905200921 94 224 1.0 2.0 0.00 0.00 0.00 51 1012.1
20260905200418 94 241 2.0 3.0 0.00 0.00 0.00 50 1012.1
20260905195915 94 227 3.0 4.0 0.00 0.00 0.00 51 1012.1
20260905195411 93 319 0.0 0.0 0.00 0.00 0.00 47 1012.2
20260905194907 93 8 1.0 2.0 0.00 0.00 0.00 50 1012.1
20260905194405 93 320 1.0 2.0 0.00 0.00 0.00 57 1012.5
20260905193900 93 312 1.0 3.0 0.00 0.00 0.00 54 1012.5
20260905193355 95 292 1.0 2.0 0.00 0.00 0.00 52 1012.4
20260905192850 95 283 2.0 2.0 0.00 0.00 0.00 51 1012.5
20260905192346 93 279 0.0 3.0 0.00 0.00 0.00 51 1012.5
20260905191846 93 285 2.0 6.0 0.00 0.00 0.00 52 1012.6
20260905191345 95 233 2.0 3.0 0.00 0.00 0.00 52 1012.5
20260905190843 93 321 1.0 2.0 0.00 0.00 0.00 50 1012.8
20260905190342 93 151 3.0 4.0 0.00 0.00 0.00 52 1012.8
20260905185841 94 229 2.0 4.0 0.00 0.00 0.00 59 1012.8
20260905185337 93 275 1.0 3.0 0.00 0.00 0.00 56 1012.9
20260905184835 93 261 0.0 1.0 0.00 0.00 0.00 53 1013.0
20260905184335 92 265 0.0 2.0 0.00 0.00 0.00 54 1013.1
20260905183833 93 250 0.0 2.0 0.00 0.00 0.00 51 1013.2
20260905183329 92 236 1.0 2.0 0.00 0.00 0.00 53 1013.2
20260905182824 92 237 1.0 2.0 0.00 0.00 0.00 51 1013.3
20260905182323 92 262 1.0 3.0 0.00 0.00 0.00 57 1013.4
20260905181819 92 264 0.0 2.0 0.00 0.00 0.00 50 1013.2
20260905181313 91 262 1.0 3.0 0.00 0.00 0.00 58 1013.6
20260905180812 90 149 3.0 3.0 0.00 0.00 0.00 54 1013.5
20260905180307 90 91 1.0 2.0 0.00 0.00 0.00 57 1013.4
20260905175803 90 355 2.0 3.0 0.00 0.00 0.00 54 1013.6
20260905175257 90 41 1.0 2.0 0.00 0.00 0.00 55 1013.8
20260905174752 92 273 2.0 3.0 0.00 0.00 0.00 58 1013.7
20260905174248 91 281 0.0 2.0 0.00 0.00 0.00 58 1014.0
20260905173744 91 289 0.0 0.0 0.00 0.00 0.00 56 1014.0
20260905173239 90 106 2.0 2.0 0.00 0.00 0.00 54 1014.1
20260905172733 90 161 3.0 3.0 0.00 0.00 0.00 54 1014.3
20260905172232 89 277 1.0 1.0 0.00 0.00 0.00 57 1014.3
20260905171729 88 156 2.0 3.0 0.00 0.00 0.00 56 1014.3
20260905171224 88 86 2.0 3.0 0.00 0.00 0.00 58 1014.0
20260905170716 88 93 2.0 3.0 0.00 0.00 0.00 59 1014.3
20260905170215 88 70 1.0 6.0 0.00 0.00 0.00 59 1014.1
20260905165709 88 141 1.0 2.0 0.00 0.00 0.00 59 1014.4
20260905165205 88 245 1.0 3.0 0.00 0.00 0.00 62 1014.4
20260905164659 89 180 3.0 3.0 0.00 0.00 0.00 56 1014.4
20260905164159 88 292 0.0 2.0 0.00 0.00 0.00 62 1014.4
20260905163655 87 325 2.0 3.0 0.00 0.00 0.00 59 1014.5
20260905163151 87 51 1.0 2.0 0.00 0.00 0.00 61 1014.4
20260905162647 87 98 2.0 4.0 0.00 0.00 0.00 62 1014.5
20260905162147 86 51 1.0 3.0 0.00 0.00 0.00 64 1014.7
20260905161647 86 348 2.0 3.0 0.00 0.00 0.00 65 1014.8
20260905161145 86 81 2.0 3.0 0.00 0.00 0.00 64 1014.7
20260905160639 85 5 3.0 3.0 0.00 0.00 0.00 63 1014.8
20260905160138 85 50 2.0 2.0 0.00 0.00 0.00 61 1014.6
20260905155633 85 337 0.0 1.0 0.00 0.00 0.00 65 1014.6
20260905155131 84 2 2.0 3.0 0.00 0.00 0.00 66 1014.8
20260905154626 84 316 1.0 2.0 0.00 0.00 0.00 65 1014.8
20260905154122 83 128 2.0 4.0 0.00 0.00 0.00 66 1014.8
20260905153618 83 51 3.0 3.0 0.00 0.00 0.00 66 1015.0
20260905153112 83 46 2.0 4.0 0.00 0.00 0.00 66 1014.9
20260905152607 82 72 3.0 4.0 0.00 0.00 0.00 71 1015.1
20260905152056 82 32 2.0 4.0 0.00 0.00 0.00 69 1015.2
20260905151551 81 359 5.0 6.0 0.00 0.00 0.00 70 1015.3
20260905151047 81 51 4.0 8.0 0.00 0.00 0.00 72 1015.1
20260905150542 81 65 2.0 7.0 0.00 0.00 0.00 73 1015.3
20260905150040 81 5 3.0 7.0 0.00 0.00 0.00 71 1015.2
20260905145533 81 85 4.0 6.0 0.00 0.00 0.00 72 1015.1
20260905145033 81 40 4.0 7.0 0.00 0.00 0.00 72 1015.3
20260905144528 80 89 3.0 9.0 0.00 0.00 0.00 74 1015.4
20260905144027 80 81 4.0 6.0 0.00 0.00 0.00 75 1015.5
20260905143526 80 135 3.0 7.0 0.00 0.00 0.00 75 1015.1
20260905143021 80 46 5.0 9.0 0.00 0.00 0.00 74 1015.3
20260905142520 79 45 5.0 8.0 0.00 0.00 0.00 75 1015.3
20260905142015 79 34 3.0 8.0 0.00 0.00 0.00 76 1015.5
20260905141509 79 27 5.0 13.0 0.00 0.00 0.00 76 1015.4
20260905141006 79 359 3.0 7.0 0.00 0.00 0.00 79 1015.4
20260905140501 79 11 7.0 10.0 0.00 0.00 0.00 80 1015.2
20260905135959 79 50 3.0 8.0 0.00 0.00 0.00 83 1015.3
20260905135455 78 56 1.0 6.0 0.00 0.00 0.00 87 1015.1
20260905134951 78 39 2.0 3.0 0.00 0.00 0.00 90 1015.1
20260905134449 77 19 2.0 4.0 0.00 0.00 0.00 92 1015.2
20260905133949 78 19 0.0 1.0 0.00 0.00 0.00 91 1014.8
20260905133444 77 32 0.0 2.0 0.00 0.00 0.00 93 1014.7
20260905132943 76 3 2.0 2.0 0.00 0.00 0.00 95 1014.7
20260905132438 76 42 2.0 2.0 0.00 0.00 0.00 95 1014.7
20260905131934 75 30 1.0 1.0 0.00 0.00 0.00 99 1014.7
20260905131430 74 354 0.0 1.0 0.00 0.00 0.00 99 1014.6
20260905130930 73 347 0.0 0.0 0.00 0.00 0.00 99 1015.0
20260905130429 74 326 0.0 0.0 0.00 0.00 0.00 99 1015.0
20260905125929 73 326 0.0 0.0 0.00 0.00 0.00 99 1015.0
20260905125424 73 292 0.0 0.0 0.00 0.00 0.00 99 1015.1
20260905124919 72 291 0.0 0.0 0.00 0.00 0.00 99 1014.8
20260905124416 71 264 0.0 1.0 0.00 0.00 0.00 99 1014.8
20260905123916 71 21 1.0 1.0 0.00 0.00 0.00 99 1015.0
20260905123413 71 39 1.0 2.0 0.00 0.00 0.00 99 1014.9
20260905122908 71 6 1.0 2.0 0.00 0.00 0.00 99 1015.0
20260905122407 71 46 0.0 0.0 0.00 0.00 0.00 99 1014.8
20260905121903 71 20 0.0 0.0 0.00 0.00 0.00 99 1014.6
20260905121358 71 19 0.0 0.0 0.00 0.00 0.00 99 1014.7
20260905120858 71 288 0.0 0.0 0.00 0.00 0.00 99 1014.5
20260905120357 71 273 0.0 0.0 0.00 0.00 0.00 99 1014.4
20260905115853 70 265 0.0 0.0 0.00 0.00 0.00 99 1014.4
20260905115352 70 265 0.0 0.0 0.00 0.00 0.00 99 1014.3
20260905114847 70 265 0.0 0.0 0.00 0.00 0.00 99 1014.1
20260905114346 70 252 0.0 0.0 0.00 0.00 0.00 99 1013.9
20260905113839 70 252 0.0 0.0 0.00 0.00 0.00 99 1013.7
20260905113335 70 252 0.0 0.0 0.00 0.00 0.00 99 1014.0
20260905112830 69 252 0.0 0.0 0.00 0.00 0.00 99 1014.0
20260905112325 69 252 0.0 0.0 0.00 0.00 0.00 99 1013.9
20260905111820 69 252 0.0 0.0 0.00 0.00 0.00 99 1013.8
20260905111315 69 252 0.0 0.0 0.00 0.00 0.00 99 1013.9
20260905110815 69 252 0.0 0.0 0.00 0.00 0.00 99 1013.8
20260905110314 69 252 0.0 0.0 0.00 0.00 0.00 99 1013.7
20260905105809 69 252 0.0 0.0 0.00 0.00 0.00 99 1013.6
20260905105308 70 252 0.0 0.0 0.00 0.00 0.00 99 1013.6
20260905104803 70 252 0.0 0.0 0.00 0.00 0.00 99 1013.7
20260905104300 70 252 0.0 0.0 0.00 0.00 0.00 99 1013.5
20260905103758 70 252 0.0 0.0 0.00 0.00 0.00 99 1013.6
20260905103254 70 252 0.0 0.0 0.00 0.00 0.00 99 1013.7
20260905102750 70 255 0.0 0.0 0.00 0.00 0.00 99 1013.7
20260905102247 70 291 0.0 0.0 0.00 0.00 0.00 99 1013.8
20260905101746 69 291 0.0 0.0 0.00 0.00 0.00 99 1013.8
20260905101245 70 291 0.0 0.0 0.00 0.00 0.00 99 1013.8
20260905100740 69 291 0.0 0.0 0.00 0.00 0.00 99 1013.6
20260905100236 70 291 0.0 0.0 0.00 0.00 0.00 99 1013.4
20260905095730 70 291 0.0 0.0 0.00 0.00 0.00 99 1013.5
20260905095229 70 291 0.0 0.0 0.00 0.00 0.00 99 1013.5
20260905094724 70 291 0.0 0.0 0.00 0.00 0.00 99 1013.5
20260905094219 70 291 0.0 0.0 0.00 0.00 0.00 99 1013.3
20260905093719 70 291 0.0 0.0 0.00 0.00 0.00 99 1013.1
20260905093215 70 291 0.0 0.0 0.00 0.00 0.00 99 1013.2
20260905092710 70 291 0.0 0.0 0.00 0.00 0.00 99 1013.2
20260905092200 70 291 0.0 0.0 0.00 0.00 0.00 99 1013.2
20260905091700 70 291 0.0 0.0 0.00 0.00 0.00 99 1013.1
20260905091200 70 291 0.0 0.0 0.00 0.00 0.00 99 1013.2
20260905090659 70 291 0.0 0.0 0.00 0.00 0.00 99 1013.1
20260905090155 71 291 0.0 0.0 0.00 0.00 0.00 99 1013.1
20260905085653 70 291 0.0 0.0 0.00 0.00 0.00 99 1013.1
20260905085149 70 291 0.0 0.0 0.00 0.00 0.00 99 1013.3
20260905084648 70 291 0.0 0.0 0.00 0.00 0.00 99 1013.2
20260905084143 70 291 0.0 0.0 0.00 0.00 0.00 99 1013.1
20260905083638 71 291 0.0 0.0 0.00 0.00 0.00 99 1012.9
20260905083134 71 291 0.0 0.0 0.00 0.00 0.00 99 1012.8
20260905082630 71 291 0.0 0.0 0.00 0.00 0.00 99 1013.0
20260905082125 71 291 0.0 0.0 0.00 0.00 0.00 99 1012.9
20260905081620 71 293 0.0 0.0 0.00 0.00 0.00 99 1013.3
20260905081114 71 293 0.0 0.0 0.00 0.00 0.00 99 1013.1
20260905080609 70 285 0.0 0.0 0.00 0.00 0.00 99 1013.2
20260905080109 70 257 0.0 0.0 0.00 0.00 0.00 99 1013.2
20260905075608 71 257 0.0 0.0 0.00 0.00 0.00 99 1013.1
20260905075103 70 257 0.0 0.0 0.00 0.00 0.00 99 1013.0
20260905074602 71 249 0.0 0.0 0.00 0.00 0.00 99 1013.1
20260905074057 71 249 0.0 0.0 0.00 0.00 0.00 99 1013.3
20260905073553 71 249 0.0 0.0 0.00 0.00 0.00 99 1013.4
20260905073048 71 249 0.0 0.0 0.00 0.00 0.00 99 1013.3
20260905072547 71 249 0.0 0.0 0.00 0.00 0.00 99 1013.4
20260905072043 71 249 0.0 0.0 0.00 0.00 0.00 99 1013.6
20260905071540 71 249 0.0 0.0 0.00 0.00 0.00 99 1013.6
20260905071034 71 249 0.0 0.0 0.00 0.00 0.00 99 1013.5
20260905070530 71 249 0.0 0.0 0.00 0.00 0.00 99 1013.9
20260905070026 71 249 0.0 0.0 0.00 0.00 0.00 99 1013.9
20260905065523 71 249 0.0 0.0 0.00 0.00 0.00 99 1013.8
20260905065019 71 249 0.0 0.0 0.00 0.00 0.00 99 1013.9
20260905064519 71 249 0.0 0.0 0.00 0.00 0.00 99 1013.9
20260905064014 71 249 0.0 0.0 0.00 0.00 0.00 99 1014.0
20260905063513 71 249 0.0 0.0 0.00 0.00 0.00 99 1014.1
20260905063010 72 249 0.0 0.0 0.00 0.00 0.00 99 1014.1
20260905062509 72 249 0.0 0.0 0.00 0.00 0.00 99 1014.1
20260905062004 72 249 0.0 0.0 0.00 0.00 0.00 99 1014.3
20260905061459 72 265 0.0 0.0 0.00 0.00 0.00 99 1014.3
20260905060958 71 265 0.0 0.0 0.00 0.00 0.00 99 1014.5
20260905060455 72 265 0.0 0.0 0.00 0.00 0.00 99 1014.6
20260905055954 72 265 0.0 0.0 0.00 0.00 0.00 99 1014.4
20260905055454 72 265 0.0 0.0 0.00 0.00 0.00 99 1014.4
20260905054949 72 265 0.0 0.0 0.00 0.00 0.00 99 1014.5
20260905054445 72 265 0.0 0.0 0.00 0.00 0.00 99 1014.5
20260905053944 71 265 0.0 0.0 0.00 0.00 0.00 99 1014.4
20260905053439 72 265 0.0 0.0 0.00 0.00 0.00 99 1014.5
20260905052935 72 265 0.0 0.0 0.00 0.00 0.00 99 1014.6
20260905052434 72 265 0.0 0.0 0.00 0.00 0.00 99 1014.6
20260905051934 73 265 0.0 0.0 0.00 0.00 0.00 99 1014.4
20260905051429 73 265 0.0 0.0 0.00 0.00 0.00 99 1014.5
20260905050927 74 265 0.0 0.0 0.00 0.00 0.00 99 1014.5
20260905050417 74 265 0.0 0.0 0.00 0.00 0.00 99 1014.6
20260905045912 73 265 0.0 0.0 0.00 0.00 0.00 99 1014.6
20260905045407 73 265 0.0 0.0 0.00 0.00 0.00 99 1014.5
20260905044903 74 265 0.0 0.0 0.00 0.00 0.00 99 1014.5
20260905044357 73 266 0.0 0.0 0.00 0.00 0.00 99 1014.5
20260905043856 73 267 0.0 0.0 0.00 0.00 0.00 99 1014.5
20260905043351 73 267 0.0 0.0 0.00 0.00 0.00 99 1014.5
20260905042846 73 267 0.0 0.0 0.00 0.00 0.00 99 1014.5
20260905042346 73 267 0.0 0.0 0.00 0.00 0.00 99 1014.7
20260905041841 73 267 0.0 0.0 0.00 0.00 0.00 99 1014.6
20260905041337 73 267 0.0 0.0 0.00 0.00 0.00 99 1014.6
20260905040832 73 267 0.0 0.0 0.00 0.00 0.00 99 1014.6
20260905040330 73 267 0.0 0.0 0.00 0.00 0.00 99 1014.6
20260905035825 73 267 0.0 0.0 0.00 0.01 0.01 99 1014.7
20260905035320 73 267 0.0 0.0 0.00 0.01 0.01 99 1014.4
20260905034817 73 267 0.0 0.0 0.00 0.01 0.01 99 1014.7
20260905034312 74 266 0.0 0.0 0.00 0.01 0.01 99 1014.6
20260905033810 74 266 0.0 0.0 0.00 0.01 0.01 99 1014.6
20260905033306 73 266 0.0 0.0 0.00 0.01 0.01 99 1014.3
20260905032800 73 266 0.0 0.0 0.00 0.01 0.01 99 1014.6
20260905032256 74 266 0.0 0.0 0.00 0.01 0.01 99 1014.6
20260905031750 74 266 0.0 0.0 0.00 0.01 0.01 99 1014.6
20260905031246 73 266 0.0 0.0 0.00 0.01 0.01 99 1014.6
20260905030741 74 262 0.0 0.0 0.00 0.01 0.01 99 1014.7
20260905030236 74 259 0.0 0.0 0.00 0.01 0.01 99 1014.6
20260905025731 74 259 0.0 0.0 0.00 0.01 0.01 98 1014.6
20260905025227 74 259 0.0 0.0 0.00 0.01 0.01 98 1014.6
20260905024722 74 260 0.0 0.0 0.00 0.01 0.01 98 1014.8
20260905024218 74 260 0.0 0.0 0.00 0.01 0.01 98 1014.6
20260905023713 74 259 0.0 0.0 0.00 0.01 0.01 98 1014.6
20260905023213 74 260 0.0 0.0 0.00 0.01 0.01 98 1014.4
20260905022711 75 259 0.0 0.0 0.00 0.01 0.01 98 1014.3
20260905022207 75 259 0.0 0.0 0.00 0.01 0.01 98 1014.5
20260905021706 75 259 0.0 0.0 0.00 0.01 0.01 98 1014.4
20260905021202 76 257 0.0 0.0 0.00 0.01 0.01 98 1014.5
20260905020657 76 118 2.0 2.0 0.00 0.01 0.01 98 1014.5
20260905020152 75 43 0.0 1.0 0.00 0.01 0.01 98 1014.4
20260905015650 75 358 0.0 0.0 0.00 0.01 0.01 98 1014.0
20260905015146 75 354 0.0 0.0 0.00 0.01 0.01 98 1014.0
20260905014644 75 354 0.0 0.0 0.00 0.01 0.01 97 1014.1
20260905014140 76 357 0.0 0.0 0.00 0.01 0.01 97 1014.0
20260905013636 76 198 1.0 2.0 0.00 0.01 0.01 97 1013.9
20260905013132 76 253 0.0 0.0 0.00 0.01 0.01 98 1013.8